Montréal / Saint-Hubert Airport

CYHU · Quebec, Canada

October 3, 2022

Time Code Weather Temp. Visibility Ceiling Wind METAR/SPECI
15:00
V
15 °C 9 mi - 110° 110° 3 kt METAR CYHU 031900Z AUTO 11003KT 010V140 9SM CLR 15/01 A3033 RMK SLP273
14:00
V
14 °C 9 mi - Var Var 2 kt METAR CYHU 031800Z AUTO VRB02KT 9SM CLR 14/01 A3036 RMK SLP282
13:00
V
13 °C 9 mi - Var 000° 0 kt METAR CYHU 031700Z AUTO 00000KT 9SM CLR 13/M00 A3040 RMK SLP296
12:00
V
12 °C 9 mi - Var Var 4 kt METAR CYHU 031600Z AUTO VRB04KT 9SM CLR 12/04 A3040 RMK SLP297
11:00
V
10 °C 9 mi - 030° 030° 5 kt METAR CYHU 031500Z AUTO 03005KT 360V080 9SM CLR 10/03 A3041 RMK SLP300
10:00
V
8 °C 9 mi - 020° 020° 7 kt METAR CYHU 031400Z AUTO 02007KT 360V060 9SM CLR 08/03 A3040 RMK SLP299
09:00
V
5 °C 9 mi - 030° 030° 8 kt METAR CYHU 031300Z AUTO 03008KT 9SM CLR 05/03 A3041 RMK SLP301
08:00
V
2 °C 9 mi - 010° 010° 5 kt METAR CYHU 031200Z AUTO 01005KT 9SM CLR 02/01 A3040 RMK SLP299
07:00
V
0 °C 9 mi - Var Var 2 kt METAR CYHU 031100Z AUTO VRB02KT 9SM CLR 00/M01 A3040 RMK SLP297
06:00
V
0 °C 9 mi - 010° 010° 3 kt METAR CYHU 031000Z AUTO 01003KT 360V070 9SM CLR M00/M01 A3039 RMK SLP295
05:00
V
1 °C 9 mi - 010° 010° 4 kt METAR CYHU 030900Z AUTO 01004KT 9SM CLR 01/M01 A3038 RMK SLP289
04:00
V
2 °C 9 mi - 010° 010° 4 kt METAR CYHU 030800Z AUTO 01004KT 9SM CLR 02/01 A3037 RMK SLP288
03:00
V
1 °C 9 mi - 020° 020° 2 kt METAR CYHU 030700Z AUTO 02002KT 9SM CLR 01/M00 A3037 RMK SLP288
02:00
V
2 °C 9 mi - 020° 020° 2 kt METAR CYHU 030600Z AUTO 02002KT 9SM CLR 02/00 A3038 RMK SLP291
01:00
V
2 °C 9 mi - 030° 030° 2 kt METAR CYHU 030500Z AUTO 03002KT 9SM CLR 02/01 A3038 RMK SLP291
00:00
V
3 °C 9 mi - Var 000° 0 kt METAR CYHU 030400Z AUTO 00000KT 9SM CLR 03/00 A3039 RMK SLP292

October 2, 2022

Time Code Weather Temp. Visibility Ceiling Wind METAR/SPECI
23:00
V
3 °C 9 mi - 360° 360° 2 kt METAR CYHU 030300Z AUTO 36002KT 9SM CLR 03/00 A3039 RMK SLP293
22:00
V
3 °C 9 mi - 350° 350° 5 kt METAR CYHU 030200Z AUTO 35005KT 9SM CLR 03/01 A3039 RMK SLP294
21:00
V
6 °C 9 mi - Var 000° 0 kt METAR CYHU 030100Z AUTO 00000KT 9SM CLR 06/01 A3039 RMK SLP293
20:00
V
6 °C 9 mi - 360° 360° 2 kt METAR CYHU 030000Z AUTO 36002KT 9SM CLR 06/02 A3039 RMK SLP294
19:00
V
8 °C 9 mi - 070° 070° 3 kt METAR CYHU 022300Z AUTO 07003KT 9SM CLR 08/01 A3038 RMK SLP290
18:00
V
10 °C 9 mi - 050° 050° 5 kt METAR CYHU 022200Z AUTO 05005KT 9SM CLR 10/00 A3037 RMK SLP286
17:00
V
12 °C 9 mi - 030° 030° 9 kt METAR CYHU 022100Z AUTO 03009KT 9SM CLR 12/M01 A3036 RMK SLP284
16:00
V
12 °C 9 mi - 030° 030° 8 kt METAR CYHU 022000Z AUTO 03008KT 360V070 9SM CLR 12/M01 A3036 RMK SLP285
15:00
V
13 °C 9 mi - 010° 010° 12 - 17 kt METAR CYHU 021900Z AUTO 01012G17KT 9SM CLR 13/M01 A3037 RMK SLP288
14:00
V
12 °C 9 mi - 020° 020° 13 - 19 kt METAR CYHU 021800Z AUTO 02013G19KT 9SM CLR 12/M02 A3039 RMK SLP293
13:00
V
12 °C 9 mi - 010° 010° 14 - 21 kt METAR CYHU 021700Z AUTO 01014G21KT 9SM CLR 12/M01 A3039 RMK SLP295
12:00
V
11 °C 9 mi - 010° 010° 16 kt METAR CYHU 021600Z AUTO 01016KT 9SM CLR 11/00 A3040 RMK SLP298
11:00
V
10 °C 9 mi - 040° 040° 14 - 19 kt METAR CYHU 021500Z AUTO 04014G19KT 9SM CLR 10/00 A3041 RMK SLP301
10:00
V
9 °C 9 mi - 050° 050° 12 - 17 kt METAR CYHU 021400Z AUTO 05012G17KT 9SM CLR 09/01 A3042 RMK SLP303
09:00
V
7 °C 9 mi - 030° 030° 13 - 19 kt METAR CYHU 021300Z AUTO 03013G19KT 9SM CLR 07/01 A3041 RMK SLP299
08:00
V
5 °C 9 mi - 030° 030° 13 kt METAR CYHU 021200Z AUTO 03013KT 9SM CLR 05/01 A3039 RMK SLP293
07:00
V
3 °C 9 mi - 020° 020° 11 kt METAR CYHU 021100Z AUTO 02011KT 9SM CLR 03/00 A3038 RMK SLP289
06:00
V
4 °C 9 mi - 020° 020° 9 kt METAR CYHU 021000Z AUTO 02009KT 9SM CLR 04/00 A3036 RMK SLP284
05:00
V
4 °C 9 mi - 020° 020° 10 kt METAR CYHU 020900Z AUTO 02010KT 9SM CLR 04/00 A3034 RMK SLP277
04:00
V
5 °C 9 mi - 020° 020° 12 kt METAR CYHU 020800Z AUTO 02012KT 9SM CLR 05/00 A3032 RMK SLP271
03:00
V
6 °C 9 mi - 020° 020° 12 - 17 kt METAR CYHU 020700Z AUTO 02012G17KT 9SM CLR 06/01 A3032 RMK SLP271
02:00
V
6 °C 9 mi - 020° 020° 12 - 18 kt METAR CYHU 020600Z AUTO 02012G18KT 9SM CLR 06/01 A3032 RMK SLP269
01:00
V
7 °C 9 mi - 020° 020° 13 kt METAR CYHU 020500Z AUTO 02013KT 9SM CLR 07/02 A3031 RMK SLP265
00:00
V
8 °C 9 mi - 030° 030° 11 - 18 kt METAR CYHU 020400Z AUTO 03011G18KT 9SM CLR 08/03 A3030 RMK SLP263

October 1, 2022

Time Code Weather Temp. Visibility Ceiling Wind METAR/SPECI
23:00
V
8 °C 9 mi - 040° 040° 8 kt METAR CYHU 020300Z AUTO 04008KT 9SM CLR 08/03 A3028 RMK SLP257
22:00
V
9 °C 9 mi - 030° 030° 8 kt METAR CYHU 020200Z AUTO 03008KT 9SM CLR 09/04 A3027 RMK SLP252
21:00
V
11 °C 9 mi - 030° 030° 10 kt METAR CYHU 020100Z AUTO 03010KT 9SM CLR 11/06 A3026 RMK SLP249
20:00
V
11 °C 9 mi - 040° 040° 5 kt METAR CYHU 020000Z AUTO 04005KT 9SM CLR 11/08 A3024 RMK SLP242
19:00
V
13 °C 9 mi - 050° 050° 6 kt METAR CYHU 012300Z AUTO 05006KT 9SM FEW040 13/08 A3021 RMK SLP234
18:00
V
14 °C 9 mi 3,200 ft 050° 050° 8 - 15 kt METAR CYHU 012200Z AUTO 05008G15KT 9SM OVC032 14/09 A3020 RMK SLP229
17:00
V
16 °C 9 mi - 020° 020° 10 kt METAR CYHU 012100Z AUTO 02010KT 9SM FEW036 16/10 A3017 RMK SLP220
16:00
V
17 °C 9 mi - 040° 040° 7 kt METAR CYHU 012000Z AUTO 04007KT 010V070 9SM CLR 17/09 A3016 RMK SLP215 DENSITY ALT 100FT
15:00
V
17 °C 9 mi - 010° 010° 10 kt METAR CYHU 011900Z AUTO 01010KT 9SM CLR 17/10 A3015 RMK SLP213 DENSITY ALT 100FT
14:00
V
17 °C 9 mi - 050° 050° 4 kt METAR CYHU 011800Z AUTO 05004KT 010V070 9SM CLR 17/09 A3016 RMK SLP216 DENSITY ALT 100FT
13:44
V
16 °C 9 mi - 010° 010° 5 kt METAR CYHU 011744Z AUTO 01005KT 350V080 9SM CLR 16/08 A3017 RMK SLP218
13:32
I
16 °C 2½ mi - Var Var 4 kt METAR CYHU 011732Z AUTO VRB04KT 2 1/2SM HZ CLR 16/08 A3017 RMK SLP219
13:00
V
15 °C 9 mi - 050° 050° 4 kt METAR CYHU 011700Z AUTO 05004KT 350V080 9SM CLR 15/08 A3018 RMK SLP223
12:00
V
14 °C 9 mi - 030° 030° 3 kt METAR CYHU 011600Z AUTO 03003KT 9SM CLR 14/08 A3018 RMK SLP222
11:00
V
13 °C 9 mi - Var 000° 0 kt METAR CYHU 011500Z AUTO 00000KT 9SM CLR 13/08 A3019 RMK SLP227
Older data

We and third parties follow your internet behavior on our website with cookies. If you continue, we assume you agree with our cookie policy. Learn more